East Taunton, MA

1:54 PM EST on December 10, 2016 (GMT -0500)
Taunton Municipal

Weather History for KTAN - August, 2013

Change the Weather History Date:

Wednesday, August 21, 2013

  Actual Average Record
Temperature  
Mean Temperature 72 °F -  
Max Temperature 89 °F 78 °F 93 °F (1955)
Min Temperature 55 °F 54 °F 42 °F (1949)
Cooling Degree Days 6    
Growing Degree Days 22 (Base 50)    
Moisture  
Dew Point 60 °F    
Average Humidity 78    
Maximum Humidity 100    
Minimum Humidity 41    
Precipitation  
Precipitation 0.00 in - - ()
Sea Level Pressure  
Sea Level Pressure 30.10 in    
Wind  
Wind Speed 2 mph (SW)    
Max Wind Speed 9 mph    
Max Gust Speed -    
Visibility 5 miles    
Events Fog    
Averages and records for this station are not official NWS values.
T = Trace of Precipitation, MM = Missing Value Source: NWS Daily Summary

Daily Weather History Graph

Daily Weather History Graph

Search for Another Location

Airport or City:

Trip Planner

Search our weather history database for the weather conditions in past years. The results will help you decide how hot, cold, wet, or windy it might be!

Date:

Astronomy

Aug. 21, 2013 Rise Set
Actual Time 5:58 AM EDT 7:34 PM EDT
Civil Twilight 5:29 AM EDT 8:04 PM EDT
Nautical Twilight 4:53 AM EDT 8:39 PM EDT
Astronomical Twilight 4:15 AM EDT 9:17 PM EDT
Moon 7:39 PM EDT (8/21) 6:36 AM EDT (8/21)
Length of Visible Light 14h 35m
Length of Day
13h 36m
Full, 100% of the Moon is Illuminated
Aug 21
Full
Aug 28
Last Quarter
Sep 5
New
Sep 12
First Quarter
Sep 19
Full

Hourly Weather History & Observations

Time (EDT) Temp. Heat Index Dew Point Humidity Pressure Visibility Wind Dir Wind Speed Gust Speed Precip Events Conditions
12:01 AM 61.0 °F - 59.0 °F 93% 30.10 in 0.5 mi Calm Calm - N/A Fog Fog
12:52 AM 60.1 °F - 59.0 °F 96% 30.10 in 0.8 mi Calm Calm - N/A   Clear
1:21 AM 59.0 °F - 57.9 °F 96% 30.11 in 1.0 mi Calm Calm - N/A   Clear
1:36 AM 59.0 °F - 57.9 °F 96% 30.10 in 0.8 mi Calm Calm - N/A   Clear
1:52 AM 59.0 °F - 57.9 °F 96% 30.10 in 0.8 mi Calm Calm - N/A   Clear
2:52 AM 57.9 °F - 57.0 °F 97% 30.11 in 0.5 mi Calm Calm - N/A Fog Fog
3:30 AM 57.9 °F - 57.0 °F 97% 30.11 in 0.2 mi Calm Calm - N/A Fog Fog
3:41 AM 57.9 °F - 55.9 °F 93% 30.11 in 0.5 mi Calm Calm - N/A Fog Fog
3:50 AM 57.2 °F - 55.4 °F 94% 30.11 in 0.5 mi Calm Calm - N/A Fog Fog
3:52 AM 57.9 °F - 57.0 °F 97% 30.11 in 0.5 mi Calm Calm - N/A Fog Fog
4:14 AM 57.0 °F - 55.9 °F 96% 30.11 in 0.5 mi Calm Calm - N/A Fog Fog
4:44 AM 57.0 °F - 55.9 °F 96% 30.12 in 0.5 mi Calm Calm - N/A Fog Fog
4:52 AM 57.0 °F - 55.9 °F 96% 30.12 in 0.5 mi Calm Calm - N/A Fog Fog
5:52 AM 55.9 °F - 55.0 °F 97% 30.12 in 0.5 mi Calm Calm - N/A Fog Fog
6:38 AM 57.0 °F - 55.9 °F 96% 30.14 in 1.5 mi Calm Calm - N/A   Clear
6:44 AM 57.9 °F - 57.9 °F 100% 30.14 in 3.0 mi Calm Calm - N/A   Clear
6:52 AM 59.0 °F - 59.0 °F 100% 30.14 in 3.0 mi Calm Calm - N/A   Clear
7:52 AM 68.0 °F - 64.0 °F 87% 30.14 in 8.0 mi Calm Calm - N/A   Clear
8:52 AM 75.0 °F - 64.0 °F 69% 30.14 in 10.0 mi West 5.8 mph - N/A   Clear
9:52 AM 78.1 °F - 64.9 °F 64% 30.14 in 10.0 mi SSW 4.6 mph - N/A   Clear
10:52 AM 82.0 °F 83.4 °F 64.0 °F 54% 30.13 in 10.0 mi WSW 5.8 mph - N/A   Clear
11:52 AM 84.9 °F 86.1 °F 64.0 °F 49% 30.12 in 10.0 mi WSW 5.8 mph - N/A   Clear
12:52 PM 87.1 °F 87.5 °F 62.1 °F 43% 30.11 in 10.0 mi Variable 4.6 mph - N/A   Clear
1:52 PM 87.1 °F 87.0 °F 61.0 °F 41% 30.10 in 10.0 mi West 4.6 mph - N/A   Clear
2:52 PM 88.0 °F 88.4 °F 62.1 °F 42% 30.08 in 10.0 mi Variable 5.8 mph - N/A   Partly Cloudy
3:52 PM 87.1 °F 87.0 °F 61.0 °F 41% 30.07 in 10.0 mi South 9.2 mph - N/A   Clear
4:52 PM 86.0 °F 86.8 °F 63.0 °F 46% 30.06 in 10.0 mi SSW 8.1 mph - N/A   Clear
5:52 PM 82.9 °F 84.6 °F 64.9 °F 54% 30.05 in 10.0 mi SSW 6.9 mph - N/A   Clear
6:52 PM 80.1 °F 82.1 °F 66.0 °F 62% 30.04 in 10.0 mi SSW 4.6 mph - N/A   Clear
7:52 PM 75.0 °F - 66.0 °F 73% 30.05 in 10.0 mi South 4.6 mph - N/A   Clear
8:52 PM 75.0 °F - 64.9 °F 71% 30.06 in 10.0 mi SW 6.9 mph - N/A   Clear
9:52 PM 73.0 °F - 64.9 °F 76% 30.05 in 10.0 mi SSW 5.8 mph - N/A   Clear
10:52 PM 72.0 °F - 64.0 °F 76% 30.05 in 10.0 mi SSW 5.8 mph - N/A   Clear
11:52 PM 71.1 °F - 64.0 °F 78% 30.04 in 10.0 mi SW 5.8 mph - N/A   Clear